GW4373 Weather Reports


time (UTC)temp
F
wind
direction
speed
knots
gust
knots
rain 1hr
in
rain 24hr
in
rain mn
in
humidity
%
barometer
mb
20260906221330 97 162 0.0 0.0 0.00 0.00 0.00 36 1008.2
20260906220825 96 240 0.0 0.0 0.00 0.00 0.00 37 1008.5
20260906220321 101 204 0.9 0.9 0.00 0.00 0.00 36 1008.5
20260906215819 101 288 0.0 0.0 0.00 0.00 0.00 36 1008.5
20260906215314 99 216 0.0 0.0 0.00 0.00 0.00 36 1008.2
20260906214812 97 222 1.7 1.7 0.00 0.00 0.00 35 1008.9
20260906214307 98 84 0.0 0.0 0.00 0.00 0.00 35 1008.9
20260906213806 99 180 0.0 0.0 0.00 0.00 0.00 34 1008.5
20260906213301 97 54 0.0 0.0 0.00 0.00 0.00 36 1008.9
20260906212758 97 148 0.0 0.0 0.00 0.00 0.00 35 1008.9
20260906212254 96 36 0.0 0.0 0.00 0.00 0.00 37 1008.9
20260906211753 98 204 1.7 1.7 0.00 0.00 0.00 36 1008.9
20260906211248 97 59 0.0 0.0 0.00 0.00 0.00 36 1009.2
20260906210743 97 210 0.0 0.0 0.00 0.00 0.00 35 1009.2
20260906210238 100 204 0.0 0.0 0.00 0.00 0.00 36 1009.2
20260906205733 98 234 0.0 0.0 0.00 0.00 0.00 37 1009.6
20260906205230 97 216 0.0 0.0 0.00 0.00 0.00 37 1009.2
20260906204730 98 216 1.7 1.7 0.00 0.00 0.00 34 1009.6
20260906204229 98 252 0.0 0.0 0.00 0.00 0.00 35 1009.6
20260906203729 99 252 1.7 1.7 0.00 0.00 0.00 34 1009.9
20260906203224 100 204 0.9 0.9 0.00 0.00 0.00 35 1009.6
20260906202721 101 234 0.9 0.9 0.00 0.00 0.00 34 1009.9
20260906202220 101 60 1.7 1.7 0.00 0.00 0.00 35 1009.6
20260906201715 101 271 0.9 0.9 0.00 0.00 0.00 35 1009.9
20260906201215 100 180 0.0 0.0 0.00 0.00 0.00 35 1009.9
20260906200711 100 192 0.0 0.0 0.00 0.00 0.00 36 1009.9
20260906200206 100 210 2.6 2.6 0.00 0.00 0.00 35 1009.9
20260906195701 101 204 1.7 1.7 0.00 0.00 0.00 36 1009.9
20260906195158 100 216 0.0 0.0 0.00 0.00 0.00 35 1010.2
20260906194654 98 210 2.6 2.6 0.00 0.00 0.00 35 1010.2
20260906194148 99 238 1.7 1.7 0.00 0.00 0.00 35 1010.2
20260906193644 98 282 0.0 0.0 0.00 0.00 0.00 36 1010.2
20260906193139 97 186 1.7 1.7 0.00 0.00 0.00 38 1010.6
20260906192635 96 6 0.0 0.0 0.00 0.00 0.00 35 1010.2
20260906192134 100 102 0.0 0.0 0.00 0.00 0.00 36 1010.6
20260906191629 99 198 0.0 0.0 0.00 0.00 0.00 35 1010.6
20260906191128 98 102 0.0 0.0 0.00 0.00 0.00 36 1010.6
20260906190622 97 204 1.7 1.7 0.00 0.00 0.00 36 1010.2
20260906190117 97 210 0.0 0.0 0.00 0.00 0.00 36 1010.6
20260906185616 97 204 1.7 1.7 0.00 0.00 0.00 37 1010.6
20260906185115 96 354 0.0 0.0 0.00 0.00 0.00 38 1010.9
20260906184610 95 96 1.7 1.7 0.00 0.00 0.00 40 1010.9
20260906184105 98 204 0.0 0.0 0.00 0.00 0.00 38 1010.6
20260906183601 98 204 0.0 0.0 0.00 0.00 0.00 38 1010.6
20260906183057 98 186 0.0 0.0 0.00 0.00 0.00 38 1011.2
20260906182552 98 180 0.0 0.0 0.00 0.00 0.00 38 1011.2
20260906182048 95 59 0.0 0.0 0.00 0.00 0.00 41 1010.9
20260906181543 94 84 0.9 0.9 0.00 0.00 0.00 41 1010.9
20260906181039 95 210 0.0 0.0 0.00 0.00 0.00 40 1011.2
20260906180533 95 234 1.7 1.7 0.00 0.00 0.00 40 1011.6
20260906180027 96 222 0.0 0.0 0.00 0.00 0.00 40 1011.6
20260906175526 94 214 0.0 0.0 0.00 0.00 0.00 41 1011.6
20260906175026 94 85 0.0 0.0 0.00 0.00 0.00 41 1011.6
20260906174524 94 132 0.0 0.0 0.00 0.00 0.00 42 1012.0
20260906174019 95 254 0.0 0.0 0.00 0.00 0.00 40 1012.0
20260906173514 98 132 0.0 0.0 0.00 0.00 0.00 41 1012.0
20260906173010 97 192 0.0 0.0 0.00 0.00 0.00 42 1011.6
20260906172505 95 204 0.9 0.9 0.00 0.00 0.00 43 1012.0
20260906172000 94 36 1.7 1.7 0.00 0.00 0.00 43 1012.0
20260906171454 94 48 1.7 1.7 0.00 0.00 0.00 43 1011.6
20260906170950 94 84 0.0 0.0 0.00 0.00 0.00 44 1012.0
20260906170446 94 198 0.0 0.0 0.00 0.00 0.00 42 1012.0
20260906165943 94 73 1.7 1.7 0.00 0.00 0.00 46 1012.4
20260906165442 93 186 2.6 2.6 0.00 0.00 0.00 44 1012.4
20260906164937 92 66 0.0 0.0 0.00 0.00 0.00 44 1012.4
20260906164436 92 40 0.0 0.0 0.00 0.00 0.00 45 1012.4
20260906163932 93 222 0.0 0.0 0.00 0.00 0.00 45 1012.4
20260906163428 93 222 0.0 0.0 0.00 0.00 0.00 45 1012.7
20260906162926 93 260 0.0 0.0 0.00 0.00 0.00 44 1012.4
20260906162419 93 204 0.0 0.0 0.00 0.00 0.00 45 1012.4
20260906161914 95 198 0.0 0.0 0.00 0.00 0.00 43 1012.4
20260906161414 93 228 0.0 0.0 0.00 0.00 0.00 44 1012.4
20260906160913 92 72 0.0 0.0 0.00 0.00 0.00 46 1012.4
20260906160406 92 54 0.0 0.0 0.00 0.00 0.00 47 1012.4
20260906155904 92 222 0.0 0.0 0.00 0.00 0.00 45 1012.4
20260906155358 91 58 0.0 0.0 0.00 0.00 0.00 49 1012.4
20260906154855 92 66 0.0 0.0 0.00 0.00 0.00 47 1012.4
20260906154349 92 204 1.7 1.7 0.00 0.00 0.00 49 1012.0
20260906153848 91 216 0.0 0.0 0.00 0.00 0.00 50 1012.0
20260906153347 92 52 0.0 0.0 0.00 0.00 0.00 50 1012.0
20260906152843 91 24 2.6 2.6 0.00 0.00 0.00 50 1012.0
20260906152342 91 6 0.0 0.0 0.00 0.00 0.00 53 1012.0
20260906151842 91 46 0.0 0.0 0.00 0.00 0.00 53 1012.0
20260906151338 91 294 0.0 0.0 0.00 0.00 0.00 54 1011.6
20260906150833 90 204 0.0 0.0 0.00 0.00 0.00 54 1011.6
20260906150329 90 48 1.7 1.7 0.00 0.00 0.00 55 1012.0
20260906145828 90 0 0.0 0.0 0.00 0.00 0.00 56 1011.6
20260906145326 89 42 0.0 0.0 0.00 0.00 0.00 57 1011.6
20260906144822 89 58 0.0 0.0 0.00 0.00 0.00 56 1011.6
20260906144317 88 60 0.0 0.0 0.00 0.00 0.00 56 1011.6
20260906143816 88 66 0.0 0.0 0.00 0.00 0.00 60 1011.6
20260906143313 87 136 0.0 0.0 0.00 0.00 0.00 56 1011.6
20260906142808 86 136 0.9 0.9 0.00 0.00 0.00 61 1012.0
20260906142306 86 65 0.0 0.0 0.00 0.00 0.00 63 1011.6
20260906141802 86 70 0.0 0.0 0.00 0.00 0.00 65 1012.0
20260906141257 84 71 0.0 0.0 0.00 0.00 0.00 65 1011.6
20260906140755 86 78 0.0 0.0 0.00 0.00 0.00 66 1012.0
20260906140251 86 168 0.0 0.0 0.00 0.00 0.00 64 1012.0
20260906135748 86 176 0.0 0.0 0.00 0.00 0.00 61 1012.0
20260906135244 85 198 0.0 0.0 0.00 0.00 0.00 65 1012.0
20260906134739 85 214 0.0 0.0 0.00 0.00 0.00 69 1011.6
20260906134234 85 214 0.0 0.0 0.00 0.00 0.00 72 1012.0
20260906133730 85 59 0.0 0.0 0.00 0.00 0.00 72 1012.0
20260906133225 84 59 0.0 0.0 0.00 0.00 0.00 76 1012.0
20260906132720 83 60 0.0 0.0 0.00 0.00 0.00 77 1012.4
20260906132216 82 60 0.0 0.0 0.00 0.00 0.00 80 1012.0
20260906131711 82 60 0.0 0.0 0.00 0.00 0.00 81 1012.0
20260906131206 81 60 0.0 0.0 0.00 0.00 0.00 82 1012.0
20260906130701 80 60 0.0 0.0 0.00 0.00 0.00 83 1012.0
20260906130157 78 60 0.0 0.0 0.00 0.00 0.00 84 1011.6
20260906125655 77 60 0.0 0.0 0.00 0.00 0.00 86 1011.6
20260906125153 76 60 0.0 0.0 0.00 0.00 0.00 89 1011.6
20260906124649 76 60 0.0 0.0 0.00 0.00 0.00 89 1011.6
20260906124144 76 60 0.0 0.0 0.00 0.00 0.00 91 1011.6
20260906123643 76 60 0.0 0.0 0.00 0.00 0.00 91 1011.6
20260906123139 75 60 0.0 0.0 0.00 0.00 0.00 90 1011.6
20260906122637 75 60 0.0 0.0 0.00 0.00 0.00 90 1011.6
20260906122133 75 60 0.0 0.0 0.00 0.00 0.00 90 1011.6
20260906121629 75 60 0.0 0.0 0.00 0.00 0.00 90 1011.6
20260906121126 75 60 0.0 0.0 0.00 0.00 0.00 89 1011.2
20260906120621 75 60 0.0 0.0 0.00 0.00 0.00 88 1011.2
20260906120118 75 60 0.0 0.0 0.00 0.00 0.00 88 1011.2
20260906115612 75 60 0.0 0.0 0.00 0.00 0.00 88 1011.2
20260906115108 75 60 0.0 0.0 0.00 0.00 0.00 89 1011.2
20260906114601 75 60 0.0 0.0 0.00 0.00 0.00 88 1011.2
20260906114057 75 60 0.0 0.0 0.00 0.00 0.00 88 1011.2
20260906113556 75 60 0.0 0.0 0.00 0.00 0.00 88 1011.2
20260906113051 76 60 0.0 0.0 0.00 0.00 0.00 88 1010.9
20260906112545 76 60 0.0 0.0 0.00 0.00 0.00 87 1010.9
20260906112042 75 60 0.0 0.0 0.00 0.00 0.00 87 1010.9
20260906111542 75 60 0.0 0.0 0.00 0.00 0.00 87 1010.9
20260906111037 76 60 0.0 0.0 0.00 0.00 0.00 87 1010.9
20260906110536 76 60 0.0 0.0 0.00 0.00 0.00 87 1010.9
20260906110036 76 60 0.0 0.0 0.00 0.00 0.00 87 1010.6
20260906105531 76 60 0.0 0.0 0.00 0.00 0.00 86 1010.6
20260906105027 76 60 0.0 0.0 0.00 0.00 0.00 86 1010.6
20260906104525 76 60 0.0 0.0 0.00 0.00 0.00 86 1010.6
20260906104020 76 60 0.0 0.0 0.00 0.00 0.00 86 1010.6
20260906103518 76 60 0.0 0.0 0.00 0.00 0.00 86 1010.6
20260906103014 76 60 0.0 0.0 0.00 0.00 0.00 85 1010.6
20260906102514 77 60 0.0 0.0 0.00 0.00 0.00 85 1010.6
20260906102014 77 60 0.0 0.0 0.00 0.00 0.00 84 1010.6
20260906101509 77 60 0.0 0.0 0.00 0.00 0.00 84 1010.6
20260906101004 77 60 0.0 0.0 0.00 0.00 0.00 85 1010.6
20260906100459 77 60 0.0 0.0 0.00 0.00 0.00 85 1010.6
20260906095954 77 60 0.0 0.0 0.00 0.00 0.00 84 1010.2
20260906095449 77 60 0.0 0.0 0.00 0.00 0.00 85 1010.6
20260906094944 77 60 0.0 0.0 0.00 0.00 0.00 84 1010.6
20260906094443 77 60 0.0 0.0 0.00 0.00 0.00 83 1010.6
20260906093940 77 60 0.0 0.0 0.00 0.00 0.00 83 1010.6
20260906093436 78 60 0.0 0.0 0.00 0.00 0.00 83 1010.6
20260906092936 78 60 0.0 0.0 0.00 0.00 0.00 83 1010.6
20260906092435 78 60 0.0 0.0 0.00 0.00 0.00 82 1010.2
20260906091931 78 60 0.0 0.0 0.00 0.00 0.00 82 1010.2
20260906091426 78 60 0.0 0.0 0.00 0.00 0.00 82 1009.9
20260906090923 78 60 0.0 0.0 0.00 0.00 0.00 82 1010.2
20260906090418 78 60 0.0 0.0 0.00 0.00 0.00 81 1009.9
20260906085912 79 60 0.0 0.0 0.00 0.00 0.00 81 1009.9
20260906085406 79 60 0.0 0.0 0.00 0.00 0.00 81 1009.9
20260906084905 79 60 0.0 0.0 0.00 0.00 0.00 80 1009.9
20260906084400 79 60 0.0 0.0 0.00 0.00 0.00 79 1009.9
20260906083854 79 60 0.0 0.0 0.00 0.00 0.00 79 1009.9
20260906083350 79 60 0.0 0.0 0.00 0.00 0.00 79 1009.9
20260906082849 79 60 0.0 0.0 0.00 0.00 0.00 79 1010.2
20260906082344 79 60 0.0 0.0 0.00 0.00 0.00 79 1010.2
20260906081841 79 60 0.0 0.0 0.00 0.00 0.00 79 1009.9
20260906081336 79 60 0.0 0.0 0.00 0.00 0.00 79 1009.9
20260906080832 79 59 0.0 0.0 0.00 0.00 0.00 78 1009.9
20260906080328 79 60 0.0 0.0 0.00 0.00 0.00 78 1009.9
20260906075827 80 60 0.0 0.0 0.00 0.00 0.00 78 1009.9
20260906075327 80 60 0.0 0.0 0.00 0.00 0.00 78 1009.9
20260906074823 80 60 0.0 0.0 0.00 0.00 0.00 78 1009.9
20260906074322 80 60 0.0 0.0 0.00 0.00 0.00 78 1009.9
20260906073821 80 60 0.0 0.0 0.00 0.00 0.00 78 1009.9
20260906073322 80 60 0.0 0.0 0.00 0.00 0.00 78 1010.2
20260906072819 80 60 0.0 0.0 0.00 0.00 0.00 78 1010.2
20260906072314 80 60 0.0 0.0 0.00 0.00 0.00 78 1010.2
20260906071810 80 59 0.0 0.0 0.00 0.00 0.00 78 1010.2
20260906071310 80 60 0.0 0.0 0.00 0.00 0.00 78 1010.2
20260906070806 80 60 0.0 0.0 0.00 0.00 0.00 77 1010.2
20260906070302 80 60 0.0 0.0 0.00 0.00 0.00 77 1010.2
20260906065755 80 60 0.0 0.0 0.00 0.00 0.00 77 1010.6
20260906065251 80 60 0.0 0.0 0.00 0.00 0.00 77 1010.2
20260906064746 80 60 0.0 0.0 0.00 0.00 0.00 76 1010.6
20260906064242 80 60 0.0 0.0 0.00 0.00 0.00 76 1010.2
20260906063737 81 60 0.0 0.0 0.00 0.00 0.00 75 1010.2
20260906063232 81 60 0.0 0.0 0.00 0.00 0.00 76 1010.2
20260906062727 81 60 0.0 0.0 0.00 0.00 0.00 76 1010.2
20260906062226 81 60 0.0 0.0 0.00 0.00 0.00 76 1010.2
20260906061723 81 60 0.0 0.0 0.00 0.00 0.00 75 1010.2
20260906061219 81 60 0.0 0.0 0.00 0.00 0.00 75 1010.2
20260906060714 82 60 0.0 0.0 0.00 0.00 0.00 74 1010.2
20260906060212 82 60 0.0 0.0 0.00 0.00 0.00 74 1009.9
20260906055707 82 60 0.0 0.0 0.00 0.00 0.00 74 1010.2
20260906055202 82 60 0.0 0.0 0.00 0.00 0.00 74 1010.2
20260906054657 82 60 0.0 0.0 0.00 0.00 0.00 73 1010.2
20260906054152 82 60 0.0 0.0 0.00 0.00 0.00 73 1010.2
20260906053649 83 60 0.0 0.0 0.00 0.00 0.00 72 1010.2
20260906053144 83 60 0.0 0.0 0.00 0.00 0.00 71 1010.6
20260906052639 83 60 0.0 0.0 0.00 0.00 0.00 71 1010.6
20260906052136 83 60 0.0 0.0 0.00 0.00 0.00 70 1010.6
20260906051632 83 60 0.0 0.0 0.00 0.00 0.00 70 1010.6
20260906051132 83 60 0.0 0.0 0.00 0.00 0.00 70 1010.2
20260906050627 83 60 0.0 0.0 0.00 0.00 0.00 70 1010.2
20260906050122 83 60 0.0 0.0 0.00 0.00 0.00 70 1010.2
20260906045621 83 60 0.0 0.0 0.00 0.00 0.00 70 1010.2
20260906045116 83 60 0.0 0.0 0.00 0.00 0.00 69 1010.2
20260906044612 84 60 0.0 0.0 0.00 0.00 0.00 68 1010.2
20260906044107 84 59 0.0 0.0 0.00 0.00 0.00 68 1010.2
20260906043603 85 59 0.0 0.0 0.00 0.00 0.00 67 1010.6
20260906043059 85 60 0.0 0.0 0.00 0.00 0.00 67 1010.6
20260906042557 85 60 0.0 0.0 0.00 0.00 0.00 66 1010.2
20260906042051 85 60 0.0 0.0 0.00 0.00 0.00 66 1010.2
20260906041548 85 60 0.0 0.0 0.00 0.00 0.00 65 1010.2
20260906041042 85 60 0.0 0.0 0.00 0.00 0.00 65 1010.2
20260906040538 86 59 0.0 0.0 0.00 0.00 0.00 64 1010.2
20260906040033 86 60 0.0 0.0 0.00 0.00 0.00 63 1010.2
20260906035528 86 59 0.0 0.0 0.00 0.00 0.00 62 1010.2
20260906035025 87 59 0.0 0.0 0.00 0.00 0.00 61 1010.2
20260906034524 87 59 0.0 0.0 0.00 0.00 0.00 61 1010.2
20260906034019 87 59 0.0 0.0 0.00 0.00 0.00 60 1010.2
20260906033514 88 198 0.0 0.0 0.00 0.00 0.00 60 1009.9
20260906033010 88 182 0.0 0.0 0.00 0.00 0.00 60 1010.2
20260906032507 88 216 0.0 0.0 0.00 0.00 0.00 59 1010.2
20260906032006 88 220 0.0 0.0 0.00 0.00 0.00 59 1010.2
20260906031501 88 210 0.0 0.0 0.00 0.00 0.00 58 1010.2
20260906030951 88 204 0.0 0.0 0.00 0.00 0.00 58 1010.6
20260906030445 89 287 0.0 0.0 0.00 0.00 0.00 58 1010.2
20260906025939 89 204 0.0 0.0 0.00 0.00 0.00 57 1010.2
20260906025434 89 164 0.0 0.0 0.00 0.00 0.00 56 1010.2
20260906024933 89 171 0.0 0.0 0.00 0.00 0.00 56 1009.9
20260906024432 90 200 0.0 0.0 0.00 0.00 0.00 55 1009.9
20260906023927 90 306 0.0 0.0 0.00 0.00 0.00 54 1009.9
20260906023424 90 225 0.0 0.0 0.00 0.00 0.00 54 1009.9
20260906022924 90 222 1.7 1.7 0.00 0.00 0.00 54 1009.9
20260906022419 91 180 0.0 0.0 0.00 0.00 0.00 54 1009.6
20260906021914 91 354 0.9 0.9 0.00 0.00 0.00 53 1009.2
20260906021415 91 198 0.0 0.0 0.00 0.00 0.00 53 1009.6
20260906020914 91 240 0.0 0.0 0.00 0.00 0.00 55 1009.2
20260906020409 90 252 0.0 0.0 0.00 0.00 0.00 57 1009.2
20260906015903 89 247 0.0 0.0 0.00 0.00 0.00 58 1009.2
20260906015402 88 199 0.0 0.0 0.00 0.00 0.00 57 1009.2
20260906014856 88 199 0.0 0.0 0.00 0.00 0.00 54 1008.9
20260906014350 89 199 0.0 0.0 0.00 0.00 0.00 53 1008.9
20260906013846 89 199 0.0 0.0 0.00 0.00 0.00 50 1008.5
20260906013342 89 199 0.0 0.0 0.00 0.00 0.00 50 1008.9
20260906012837 90 199 0.0 0.0 0.00 0.00 0.00 49 1008.9
20260906012332 90 199 0.0 0.0 0.00 0.00 0.00 48 1008.9
20260906011832 90 199 0.0 0.0 0.00 0.00 0.00 47 1008.5
20260906011327 91 199 0.0 0.0 0.00 0.00 0.00 46 1008.5
20260906010823 91 199 0.0 0.0 0.00 0.00 0.00 45 1008.5
20260906010319 92 198 0.0 0.0 0.00 0.00 0.00 45 1008.2
20260906005814 93 198 0.0 0.0 0.00 0.00 0.00 43 1008.5
20260906005313 94 198 0.0 0.0 0.00 0.00 0.00 43 1008.2
20260906004812 94 198 0.0 0.0 0.00 0.00 0.00 41 1008.2
20260906004307 95 198 0.0 0.0 0.00 0.00 0.00 41 1008.5
20260906003802 96 198 0.0 0.0 0.00 0.00 0.00 40 1008.5
20260906003257 97 198 0.0 0.0 0.00 0.00 0.00 39 1008.5
20260906002753 97 198 0.0 0.0 0.00 0.00 0.00 39 1008.2
20260906002252 97 198 0.0 0.0 0.00 0.00 0.00 39 1008.2
20260906001748 97 204 0.0 0.0 0.00 0.00 0.00 39 1008.2
20260906001242 97 202 0.0 0.0 0.00 0.00 0.00 38 1008.2
20260906000738 97 204 0.0 0.0 0.00 0.00 0.00 39 1008.2
20260906000234 97 204 0.0 0.0 0.00 0.00 0.00 39 1008.2
20260905235727 97 204 0.0 0.0 0.00 0.00 0.00 39 1008.5
20260905235221 98 216 0.0 0.0 0.00 0.00 0.00 38 1008.2
20260905234717 98 222 0.0 0.0 0.00 0.00 0.00 38 1008.2
20260905234212 98 210 0.0 0.0 0.00 0.00 0.00 38 1008.2
20260905233707 98 213 0.0 0.0 0.00 0.00 0.00 38 1008.2
20260905233206 98 214 0.0 0.0 0.00 0.00 0.00 38 1008.2
20260905232701 98 222 0.0 0.0 0.00 0.00 0.00 37 1008.2
20260905232157 98 220 0.0 0.0 0.00 0.00 0.00 37 1008.2
20260905231653 98 216 0.0 0.0 0.00 0.00 0.00 37 1008.2
20260905231148 99 176 0.0 0.0 0.00 0.00 0.00 37 1008.2
20260905230644 99 208 0.0 0.0 0.00 0.00 0.00 37 1008.2
20260905230137 99 251 0.0 0.0 0.00 0.00 0.00 37 1008.2
20260905225637 99 57 0.0 0.0 0.00 0.00 0.00 37 1007.9
20260905225136 99 204 0.0 0.0 0.00 0.00 0.00 37 1007.9
20260905224636 99 210 0.0 0.0 0.00 0.00 0.00 37 1008.2
20260905224135 99 216 0.0 0.0 0.00 0.00 0.00 37 1008.2
20260905223633 100 246 0.0 0.0 0.00 0.00 0.00 37 1007.9
20260905223129 99 264 0.0 0.0 0.00 0.00 0.00 37 1007.9
20260905222625 96 204 0.0 0.0 0.00 0.00 0.00 37 1008.2
20260905222119 94 214 0.0 0.0 0.00 0.00 0.00 37 1008.2